EW9560 Weather Reports


time (UTC)temp
C
wind
direction
speed
KPH
gust
KPH
rain 1hr
cm
rain 24hr
cm
rain mn
cm
humidity
%
barometer
mb
20260505170035 16 291 17.7 35.4 0.00 6.50 0.00 68 1015.8
20260505164531 16 279 16.1 35.4 0.00 6.50 0.00 69 1015.7
20260505163032 15 284 16.1 32.2 0.00 6.50 0.00 70 1015.6
20260505161543 15 288 16.1 35.4 0.00 6.50 0.00 71 1015.7
20260505153034 15 279 11.3 24.1 0.00 6.50 0.00 74 1015.8
20260505151536 14 264 12.9 27.4 0.00 6.50 0.00 76 1015.6
20260505150108 14 276 12.9 27.4 0.00 6.50 0.00 76 1015.6
20260505140109 13 281 11.3 22.5 0.00 6.50 0.00 80 1015.2
20260505130111 13 281 12.9 25.7 0.00 6.50 0.00 80 1014.7
20260505124535 13 281 12.9 27.4 0.00 6.50 0.00 80 1014.6
20260505123031 13 282 14.5 29.0 0.00 6.50 0.00 78 1014.5
20260505121532 13 284 12.9 29.0 0.00 6.50 0.00 78 1014.4
20260505120035 13 287 12.9 29.0 0.00 6.50 0.00 78 1014.3
20260505114534 13 285 11.3 24.1 0.00 6.50 0.00 78 1014.2
20260505113033 13 289 12.9 29.0 0.00 6.50 0.00 77 1014.2
20260505111536 14 286 14.5 37.0 0.00 6.50 0.00 77 1014.1
20260505101608 14 284 14.5 30.6 0.00 6.50 0.00 76 1013.7
20260505094642 15 280 14.5 30.6 0.00 6.50 0.00 74 1013.5
20260505093034 15 282 19.3 40.2 0.00 6.50 0.00 74 1013.3
20260505091535 16 279 14.5 38.6 0.00 6.50 0.00 73 1013.3
20260505090035 16 273 12.9 27.4 0.00 6.50 0.00 72 1013.1
20260505084532 16 279 12.9 27.4 0.00 6.50 0.00 71 1013.0
20260505083033 16 273 14.5 27.4 0.00 6.50 0.00 71 1012.9
20260505081535 17 276 12.9 30.6 0.00 6.50 0.00 71 1012.8
20260505080035 17 282 14.5 27.4 0.00 6.50 0.00 71 1012.8
20260505074535 17 275 16.1 30.6 0.00 6.50 0.00 71 1012.6
20260505073109 17 276 11.3 29.0 0.00 6.50 0.00 70 1012.6
20260505071537 18 279 14.5 33.8 0.00 6.50 0.00 69 1012.4
20260505070111 18 284 16.1 29.0 0.00 6.50 0.00 68 1012.2
20260505064533 18 284 12.9 24.1 0.00 6.50 6.50 65 1012.1
20260505063034 18 285 12.9 29.0 0.00 6.50 6.50 65 1012.0
20260505061535 19 282 9.7 19.3 0.00 6.50 6.50 65 1012.0
20260505054536 19 266 8.0 19.3 0.00 6.50 6.50 62 1011.9
20260505053037 20 274 8.0 24.1 0.00 6.50 6.50 61 1011.8
20260505051536 20 276 9.7 22.5 0.00 6.50 6.50 59 1011.7
20260505041610 20 277 8.0 17.7 0.00 6.50 6.50 55 1011.0
20260505040050 21 280 8.0 22.5 0.00 6.50 6.50 55 1010.8
20260505034534 21 280 8.0 17.7 6.50 6.50 6.50 54 1010.6
20260505033032 21 282 8.0 25.7 6.50 6.50 6.50 53 1010.4
20260505030038 22 273 12.9 939.9 6.50 6.50 0.00 50 1007.0
20260505024535 22 265 9.7 22.5 0.00 0.00 0.00 52 1009.8
20260505023036 22 263 11.3 30.6 0.00 0.00 0.00 52 1009.8
20260505021535 22 238 4.8 14.5 0.00 0.00 0.00 52 1009.8
20260505020036 22 234 8.0 22.5 0.00 0.00 0.00 51 1009.8
20260505014537 23 245 8.0 19.3 0.00 0.00 0.00 51 1009.8
20260505013036 23 238 11.3 27.4 0.00 0.00 0.00 50 1009.6
20260505004653 23 265 12.9 33.8 0.00 0.00 0.00 48 1009.6
20260505004642 23 275 14.5 32.2 0.00 0.00 0.00 48 1009.4
20260505000041 23 278 17.7 37.0 0.00 0.00 0.00 47 1009.2
20260504234533 23 276 16.1 38.6 0.00 0.00 0.00 47 1009.1
20260504233149 24 288 17.7 35.4 0.00 0.00 0.00 46 1009.1
20260504231531 24 286 17.7 40.2 0.00 0.00 0.00 46 1009.1
20260504230037 24 288 17.7 33.8 0.00 0.00 0.00 46 1009.2
20260504223035 24 296 16.1 35.4 0.00 0.00 0.00 47 1009.6
20260504220036 24 292 17.7 33.8 0.00 0.00 0.00 47 1009.8
20260504210037 24 294 9.7 29.0 0.00 0.00 0.00 46 1010.6
20260504200037 24 299 6.4 22.5 0.00 0.00 0.00 45 1011.2
20260504194533 23 294 4.8 20.9 0.00 0.00 0.00 46 1011.3
20260504193033 23 294 6.4 24.1 0.00 0.00 0.00 47 1011.4
20260504191534 23 263 9.7 19.3 0.00 0.00 0.00 47 1011.5
20260504184532 22 280 6.4 20.9 0.00 0.00 0.00 49 1011.8
20260504181535 21 292 12.9 27.4 0.00 0.00 0.00 51 1011.8
20260504180035 21 284 12.9 20.9 0.00 0.00 0.00 52 1011.9
20260504174537 20 302 14.5 29.0 0.00 0.00 0.00 54 1011.8
20260504171534 20 295 16.1 33.8 0.00 0.00 0.00 54 1011.8